Location: Mahannah Oil Field
(37.4664°N, 96.6003°W)
Time: 05:18:12
(UTC+00:00)

Courier 1B Rocket - Pass Details

Date: 27 January 2021
Orbit: 920 x 1202 km, 28.3° (Epoch: 05 March)

Event Time Altitude Azimuth Distance (km) Brightness Sun altitude
Exits shadow 11:42:02 14° 214° (SW) 2,384 6.8 -22.2°
Maximum altitude 11:46:22 28° 164° (SSE) 1,747 6.5 -21.3°
Drops below altitude 10° 11:52:01 10° 108° (ESE) 2,818 8.6 -20.2°
Sets 11:55:11 0° 97° (E) 3,823 9.8 -19.6°
